RYR5TA LEVC-LIMC

Flight info

Callsign RYR5TA
Flight time N/A
Altitude 34000
Route SOPET M985 LUMAS DCT UNANA DCT STP/N0452F350 DCT RAPED/N0450F340 DCT PIGOS DCT EKSID DCT NOSTA DCT NOPMU DCT EGHIN DCT ANAKI/N0453F300 P860 DEVOX
Aircraft B738/M-SDE2E3FGHIRWXY/LB1

Departure

Time 2026-05-05 16:37
Airport Valencia Airport (LEVC)

Arrival

Time N/A
Airport Milan Malpensa International Airport (LIMC)
Time Latitude Longitude Altitude Speed Heading
2026-05-05 16:12 39.49264 -0.47834 198 ft 0 kts 206°
2026-05-05 16:26 39.49295 -0.47822 198 ft 4 kts 169°
2026-05-05 16:26 39.49319 -0.47842 212 ft 1 kts 116°
2026-05-05 16:28 39.49316 -0.47836 207 ft 3 kts 116°
2026-05-05 16:28 39.49287 -0.47757 207 ft 16 kts 115°
2026-05-05 16:28 39.49198 -0.47690 208 ft 18 kts 202°
2026-05-05 16:29 39.49081 -0.47729 201 ft 15 kts 143°
2026-05-05 16:29 39.49033 -0.47566 204 ft 24 kts 115°
2026-05-05 16:29 39.48952 -0.47346 198 ft 25 kts 117°
2026-05-05 16:29 39.48829 -0.47209 193 ft 26 kts 155°
2026-05-05 16:30 39.48704 -0.47027 181 ft 17 kts 118°
2026-05-05 16:30 39.48668 -0.46936 179 ft 11 kts 116°
2026-05-05 16:30 39.48637 -0.46861 177 ft 3 kts 121°
2026-05-05 16:30 39.48634 -0.46853 177 ft 0 kts 120°
2026-05-05 16:31 39.48633 -0.46853 177 ft 0 kts 120°
2026-05-05 16:31 39.48624 -0.46833 176 ft 5 kts 121°
2026-05-05 16:31 39.48602 -0.46792 175 ft 0 kts 131°
2026-05-05 16:34 39.48601 -0.46790 175 ft 0 kts 131°
2026-05-05 16:35 39.48601 -0.46789 175 ft 1 kts 131°
2026-05-05 16:35 39.48583 -0.46764 175 ft 9 kts 134°
2026-05-05 16:35 39.48482 -0.46756 177 ft 21 kts 216°
2026-05-05 16:36 39.48466 -0.46941 180 ft 33 kts 295°
2026-05-05 16:36 39.48667 -0.47474 199 ft 97 kts 295°
2026-05-05 16:36 39.49056 -0.48473 223 ft 148 kts 296°
2026-05-05 16:36 39.49520 -0.49768 594 ft 168 kts 291°
2026-05-05 16:37 39.50036 -0.51242 955 ft 193 kts 297°
2026-05-05 16:37 39.50688 -0.52842 1483 ft 206 kts 297°
2026-05-05 16:37 39.51446 -0.54407 2083 ft 214 kts 315°
2026-05-05 16:37 39.52845 -0.55188 2294 ft 234 kts 357°
2026-05-05 16:38 39.54412 -0.54551 2657 ft 245 kts 37°
2026-05-05 16:38 39.55519 -0.52853 3183 ft 249 kts 53°
2026-05-05 16:38 39.56495 -0.50980 3742 ft 253 kts 54°
2026-05-05 16:38 39.57494 -0.49030 3985 ft 271 kts 54°
2026-05-05 16:39 39.58576 -0.46935 4458 ft 285 kts 55°
2026-05-05 16:39 39.59697 -0.44788 5196 ft 286 kts 54°
2026-05-05 16:39 39.60828 -0.42643 5888 ft 292 kts 54°
2026-05-05 16:39 39.61978 -0.40448 6593 ft 296 kts 54°
2026-05-05 16:40 39.63125 -0.38216 7323 ft 299 kts 54°
2026-05-05 16:40 39.64290 -0.35972 8117 ft 300 kts 54°
2026-05-05 16:40 39.65466 -0.33740 8841 ft 306 kts 53°
2026-05-05 16:40 39.66686 -0.31450 9581 ft 310 kts 53°
2026-05-05 16:41 39.67925 -0.29144 10277 ft 316 kts 53°
2026-05-05 16:41 39.69235 -0.26721 10484 ft 340 kts 53°
2026-05-05 16:41 39.70642 -0.24126 10669 ft 362 kts 53°
2026-05-05 16:41 39.72119 -0.21401 11146 ft 374 kts 53°
2026-05-05 16:42 39.73626 -0.18616 11813 ft 379 kts 52°
2026-05-05 16:42 39.75152 -0.15796 12527 ft 384 kts 52°
2026-05-05 16:42 39.76678 -0.12972 13221 ft 389 kts 52°
2026-05-05 16:42 39.78245 -0.10070 13901 ft 395 kts 52°
2026-05-05 16:43 39.79839 -0.07118 14500 ft 402 kts 52°
2026-05-05 16:43 39.81462 -0.04113 15187 ft 407 kts 52°
2026-05-05 16:43 39.83098 -0.01086 15880 ft 412 kts 52°
2026-05-05 16:43 39.84914 0.01832 16413 ft 418 kts 45°
2026-05-05 16:44 39.86919 0.04610 16992 ft 426 kts 43°
2026-05-05 16:44 39.88995 0.07400 17590 ft 432 kts 42°
2026-05-05 16:44 39.91100 0.10240 18168 ft 439 kts 43°
2026-05-05 16:44 39.93222 0.13145 18706 ft 445 kts 43°
2026-05-05 16:45 39.95356 0.16108 19247 ft 450 kts 43°
2026-05-05 16:45 39.97507 0.19115 19795 ft 456 kts 43°
2026-05-05 16:45 39.99682 0.22159 20316 ft 461 kts 43°
2026-05-05 16:45 40.01877 0.25228 20826 ft 466 kts 43°
2026-05-05 16:46 40.04074 0.28293 21455 ft 468 kts 43°
2026-05-05 16:46 40.06296 0.31394 22157 ft 469 kts 43°
2026-05-05 16:46 40.08536 0.34519 22571 ft 476 kts 43°
2026-05-05 16:46 40.10816 0.37707 22981 ft 483 kts 43°
2026-05-05 16:47 40.13126 0.40942 23343 ft 491 kts 43°
2026-05-05 16:47 40.15468 0.44229 23713 ft 496 kts 43°
2026-05-05 16:47 40.17825 0.47545 23909 ft 497 kts 43°
2026-05-05 16:47 40.20165 0.50844 23897 ft 495 kts 43°
2026-05-05 16:48 40.22508 0.54148 23914 ft 495 kts 43°
2026-05-05 16:48 40.24855 0.57457 23920 ft 496 kts 43°
2026-05-05 16:48 40.27197 0.60760 23947 ft 491 kts 44°
2026-05-05 16:48 40.29497 0.64008 23901 ft 484 kts 44°
2026-05-05 16:49 40.31790 0.67248 23912 ft 486 kts 44°
2026-05-05 16:49 40.34093 0.70506 23911 ft 488 kts 44°